| time (UTC) | temp C | wind direction | speed KPH | gust KPH | rain 1hr cm | rain 24hr cm | rain mn cm | humidity % | barometer mb |
| 20260507201601 | 19 | 70 | 0.0 | 0.0 | 0.00 | 0.00 | 0.00 | 50 | 1017.8 |
| 20260507200108 | 19 | 69 | 0.0 | 1.6 | 0.00 | 0.00 | 0.00 | 49 | 1017.8 |
| 20260507194620 | 20 | 110 | 0.0 | 4.8 | 0.00 | 0.00 | 0.00 | 48 | 1017.9 |
| 20260507193129 | 20 | 119 | 1.6 | 4.8 | 0.00 | 0.00 | 0.00 | 48 | 1017.6 |
| 20260507191509 | 20 | 262 | 0.0 | 6.4 | 0.00 | 0.00 | 0.00 | 45 | 1017.6 |
| 20260507190046 | 20 | 292 | 1.6 | 19.3 | 0.00 | 0.00 | 0.00 | 36 | 1017.4 |
| 20260507184554 | 20 | 329 | 4.8 | 11.3 | 0.00 | 0.00 | 0.00 | 38 | 1017.5 |
| 20260507183102 | 20 | 38 | 1.6 | 9.7 | 0.00 | 0.00 | 0.00 | 39 | 1017.4 |
| 20260507181611 | 20 | 77 | 0.0 | 6.4 | 0.00 | 0.00 | 0.00 | 42 | 1017.4 |
| 20260507180119 | 20 | 248 | 0.0 | 6.4 | 0.00 | 0.00 | 0.00 | 42 | 1017.3 |
| 20260507174502 | 20 | 27 | 1.6 | 9.7 | 0.00 | 0.00 | 0.00 | 43 | 1017.2 |
| 20260507173013 | 20 | 40 | 1.6 | 6.4 | 0.00 | 0.00 | 0.00 | 43 | 1017.4 |
| 20260507171549 | 21 | 117 | 3.2 | 9.7 | 0.00 | 0.00 | 0.00 | 38 | 1017.2 |
| 20260507170054 | 21 | 33 | 3.2 | 11.3 | 0.00 | 0.00 | 0.00 | 34 | 1016.8 |
| 20260507164603 | 21 | 43 | 1.6 | 9.7 | 0.00 | 0.00 | 0.00 | 35 | 1016.5 |
| 20260507163114 | 21 | 31 | 1.6 | 9.7 | 0.00 | 0.00 | 0.00 | 36 | 1016.6 |
| 20260507161621 | 22 | 34 | 3.2 | 8.0 | 0.00 | 0.00 | 0.00 | 37 | 1016.8 |
| 20260507160002 | 22 | 120 | 1.6 | 11.3 | 0.00 | 0.00 | 0.00 | 35 | 1016.6 |
| 20260507154510 | 22 | 321 | 6.4 | 12.9 | 0.00 | 0.00 | 0.00 | 35 | 1016.9 |
| 20260507153020 | 23 | 243 | 3.2 | 11.3 | 0.00 | 0.00 | 0.00 | 34 | 1017.1 |
| 20260507151555 | 23 | 56 | 6.4 | 16.1 | 0.00 | 0.00 | 0.00 | 34 | 1017.3 |
| 20260507150003 | 23 | 359 | 3.2 | 12.9 | 0.00 | 0.00 | 0.00 | 35 | 1017.3 |
| 20260507144513 | 23 | 37 | 4.8 | 20.9 | 0.00 | 0.00 | 0.00 | 36 | 1017.2 |
| 20260507143152 | 23 | 32 | 4.8 | 24.1 | 0.00 | 0.00 | 0.00 | 35 | 1017.2 |
| 20260507141626 | 23 | 72 | 4.8 | 27.4 | 0.00 | 0.00 | 0.00 | 33 | 1017.1 |
| 20260507140007 | 23 | 37 | 3.2 | 20.9 | 0.00 | 0.00 | 0.00 | 35 | 1016.7 |
| 20260507134520 | 24 | 24 | 9.7 | 27.4 | 0.00 | 0.00 | 0.00 | 30 | 1016.8 |
| 20260507133052 | 24 | 23 | 9.7 | 25.7 | 0.00 | 0.00 | 0.00 | 30 | 1016.6 |
| 20260507131621 | 24 | 4 | 6.4 | 19.3 | 0.00 | 0.00 | 0.00 | 31 | 1016.5 |
| 20260507130112 | 24 | 121 | 3.2 | 20.9 | 0.00 | 0.00 | 0.00 | 34 | 1016.8 |
| 20260507124622 | 24 | 342 | 3.2 | 16.1 | 0.00 | 0.00 | 0.00 | 34 | 1017.0 |
| 20260507123059 | 24 | 31 | 1.6 | 14.5 | 0.00 | 0.00 | 0.00 | 36 | 1017.2 |
| 20260507121608 | 24 | 22 | 3.2 | 14.5 | 0.00 | 0.00 | 0.00 | 35 | 1017.3 |
| 20260507120114 | 25 | 320 | 1.6 | 22.5 | 0.00 | 0.00 | 0.00 | 37 | 1017.4 |
| 20260507114619 | 24 | 101 | 4.8 | 14.5 | 0.00 | 0.00 | 0.00 | 37 | 1017.3 |
| 20260507113002 | 23 | 1 | 3.2 | 14.5 | 0.00 | 0.00 | 0.00 | 43 | 1017.5 |
| 20260507111518 | 23 | 117 | 4.8 | 17.7 | 0.00 | 0.00 | 0.00 | 51 | 1017.7 |
| 20260507110027 | 24 | 65 | 3.2 | 17.7 | 0.00 | 0.00 | 0.00 | 49 | 1017.5 |
| 20260507104557 | 25 | 98 | 4.8 | 16.1 | 0.00 | 0.00 | 0.00 | 47 | 1017.5 |
| 20260507103112 | 25 | 81 | 4.8 | 19.3 | 0.00 | 0.00 | 0.00 | 43 | 1017.0 |
| 20260507101620 | 24 | 76 | 4.8 | 12.9 | 0.00 | 0.00 | 0.00 | 49 | 1017.0 |
| 20260507100003 | 23 | 83 | 3.2 | 11.3 | 0.00 | 0.00 | 0.00 | 63 | 1017.2 |
| 20260507094539 | 22 | 120 | 3.2 | 16.1 | 0.00 | 0.00 | 0.00 | 64 | 1017.1 |
| 20260507093035 | 22 | 94 | 4.8 | 11.3 | 0.00 | 0.00 | 0.00 | 61 | 1017.3 |
| 20260507091606 | 22 | 71 | 4.8 | 14.5 | 0.00 | 0.00 | 0.00 | 61 | 1017.2 |
| 20260507084557 | 22 | 35 | 0.0 | 9.7 | 0.00 | 0.00 | 0.00 | 58 | 1017.1 |
| 20260507080136 | 22 | 111 | 3.2 | 12.9 | 0.00 | 0.00 | 0.00 | 56 | 1017.2 |
| 20260507070108 | 21 | 324 | 1.6 | 6.4 | 0.00 | 0.00 | 0.00 | 54 | 1017.1 |
| 20260507063154 | 20 | 104 | 4.8 | 14.5 | 0.00 | 0.00 | 0.00 | 55 | 1017.0 |
| 20260507061646 | 20 | 29 | 1.6 | 9.7 | 0.00 | 0.00 | 0.00 | 54 | 1016.9 |
| 20260507060017 | 21 | 16 | 3.2 | 9.7 | 0.00 | 0.00 | 0.00 | 51 | 1016.7 |
| 20260507053150 | 20 | 233 | 0.0 | 3.2 | 0.00 | 0.00 | 0.00 | 58 | 1016.1 |
| 20260507051624 | 18 | 163 | 0.0 | 6.4 | 0.00 | 0.00 | 0.00 | 61 | 1016.0 |
| 20260507050004 | 18 | 148 | 0.0 | 3.2 | 0.00 | 0.00 | 0.00 | 61 | 1016.0 |
| 20260507044539 | 17 | 181 | 0.0 | 3.2 | 0.00 | 0.00 | 0.00 | 60 | 1015.9 |
| 20260507043033 | 16 | 285 | 0.0 | 0.0 | 0.00 | 0.00 | 0.00 | 61 | 1015.9 |
| 20260507041607 | 16 | 285 | 0.0 | 0.0 | 0.00 | 0.00 | 0.00 | 64 | 1016.0 |
| 20260507040122 | 14 | 285 | 0.0 | 0.0 | 0.00 | 0.00 | 0.00 | 68 | 1016.1 |
| 20260507034625 | 13 | 285 | 0.0 | 0.0 | 0.00 | 0.00 | 0.00 | 72 | 1016.2 |
| 20260507033012 | 13 | 285 | 0.0 | 0.0 | 0.00 | 0.00 | 0.00 | 74 | 1015.9 |
| 20260507031549 | 13 | 285 | 0.0 | 0.0 | 0.00 | 0.00 | 0.00 | 74 | 1015.9 |
| 20260507030110 | 13 | 285 | 0.0 | 0.0 | 0.00 | 0.00 | 0.00 | 73 | 1015.9 |
| 20260507024617 | 13 | 285 | 0.0 | 0.0 | 0.00 | 0.00 | 0.00 | 72 | 1015.8 |
| 20260507023001 | 14 | 285 | 0.0 | 0.0 | 0.00 | 0.00 | 0.00 | 70 | 1015.8 |
| 20260507021516 | 14 | 285 | 0.0 | 0.0 | 0.00 | 0.00 | 0.00 | 70 | 1015.6 |
| 20260507020025 | 13 | 285 | 0.0 | 0.0 | 0.00 | 0.00 | 0.00 | 67 | 1015.7 |
| 20260507014624 | 13 | 285 | 0.0 | 0.0 | 0.00 | 0.00 | 0.00 | 66 | 1015.7 |
| 20260507013010 | 13 | 285 | 0.0 | 0.0 | 0.00 | 0.00 | 0.00 | 66 | 1015.4 |
| 20260507011555 | 14 | 285 | 0.0 | 0.0 | 0.00 | 0.00 | 0.00 | 65 | 1015.2 |
| 20260507010058 | 14 | 285 | 0.0 | 0.0 | 0.00 | 0.00 | 0.00 | 65 | 1014.9 |
| 20260507004612 | 14 | 285 | 0.0 | 0.0 | 0.00 | 0.00 | 0.00 | 65 | 1014.9 |
| 20260507003125 | 15 | 285 | 0.0 | 0.0 | 0.00 | 0.00 | 0.00 | 61 | 1014.7 |
| 20260507001507 | 15 | 285 | 0.0 | 0.0 | 0.00 | 0.00 | 0.00 | 63 | 1014.7 |
| 20260507000022 | 15 | 285 | 0.0 | 0.0 | 0.00 | 0.00 | 0.00 | 64 | 1015.0 |
| 20260506234606 | 15 | 285 | 0.0 | 0.0 | 0.00 | 0.00 | 0.00 | 63 | 1015.4 |
| 20260506233117 | 14 | 285 | 0.0 | 0.0 | 0.00 | 0.00 | 0.00 | 63 | 1015.6 |
| 20260506231628 | 15 | 285 | 0.0 | 0.0 | 0.00 | 0.00 | 0.00 | 62 | 1015.7 |
| 20260506230000 | 15 | 285 | 0.0 | 0.0 | 0.00 | 0.00 | 0.00 | 63 | 1015.7 |
| 20260506224524 | 15 | 285 | 0.0 | 0.0 | 0.00 | 0.00 | 0.00 | 61 | 1015.7 |
| 20260506223053 | 15 | 285 | 0.0 | 0.0 | 0.00 | 0.00 | 0.00 | 61 | 1015.7 |
| 20260506221605 | 15 | 285 | 0.0 | 0.0 | 0.00 | 0.00 | 0.00 | 59 | 1015.8 |
| 20260506220121 | 16 | 285 | 0.0 | 0.0 | 0.00 | 0.00 | 0.00 | 59 | 1015.9 |
| 20260506214506 | 15 | 285 | 0.0 | 0.0 | 0.00 | 0.00 | 0.00 | 61 | 1015.9 |
| 20260506213045 | 15 | 285 | 0.0 | 0.0 | 0.00 | 0.00 | 0.00 | 60 | 1016.1 |
| 20260506211557 | 16 | 285 | 0.0 | 0.0 | 0.00 | 0.00 | 0.00 | 58 | 1016.2 |
| 20260506210121 | 16 | 285 | 0.0 | 0.0 | 0.00 | 0.00 | 0.00 | 57 | 1016.3 |
| 20260506204619 | 16 | 285 | 0.0 | 0.0 | 0.00 | 0.00 | 0.00 | 57 | 1016.5 |
| 20260506203145 | 16 | 285 | 0.0 | 0.0 | 0.00 | 0.00 | 0.00 | 56 | 1016.4 |